EW0610 Weather Reports


time (UTC)temp
C
wind
direction
speed
KPH
gust
KPH
rain 1hr
cm
rain 24hr
cm
rain mn
cm
humidity
%
barometer
mb
20260906225931 37 101 4.8 16.1 0.00 0.00 0.00 37 1010.3
20260906225436 37 127 9.7 22.5 0.00 0.00 0.00 37 1010.3
20260906224943 37 114 8.0 22.5 0.00 0.00 0.00 37 1010.3
20260906224432 37 116 9.7 16.1 0.00 0.00 0.00 38 1010.3
20260906223938 37 108 8.0 14.5 0.00 0.00 0.00 37 1010.4
20260906223444 37 99 0.0 16.1 0.00 0.00 0.00 37 1010.4
20260906222930 37 119 6.4 16.1 0.00 0.00 0.00 38 1010.5
20260906222433 37 113 6.4 20.9 0.00 0.00 0.00 39 1010.5
20260906222002 37 102 9.7 22.5 0.00 0.00 0.00 38 1010.5
20260906221433 37 87 12.9 22.5 0.00 0.00 0.00 38 1010.5
20260906220934 37 108 6.4 22.5 0.00 0.00 0.00 38 1010.5
20260906220508 37 58 12.9 24.1 0.00 0.00 0.00 38 1010.6
20260906215955 37 70 14.5 24.1 0.00 0.00 0.00 38 1010.6
20260906215442 37 108 12.9 20.9 0.00 0.00 0.00 38 1010.5
20260906214927 37 79 8.0 16.1 0.00 0.00 0.00 38 1010.6
20260906214433 37 79 9.7 16.1 0.00 0.00 0.00 38 1010.8
20260906213937 37 85 1.6 12.9 0.00 0.00 0.00 39 1010.9
20260906213442 36 118 8.0 16.1 0.00 0.00 0.00 40 1010.9
20260906212929 36 102 3.2 20.9 0.00 0.00 0.00 40 1011.0
20260906212438 36 114 11.3 20.9 0.00 0.00 0.00 40 1011.1
20260906211925 36 112 8.0 16.1 0.00 0.00 0.00 40 1011.2
20260906211435 36 113 8.0 25.7 0.00 0.00 0.00 39 1011.2
20260906210946 36 95 8.0 25.7 0.00 0.00 0.00 39 1011.3
20260906210454 36 70 9.7 20.9 0.00 0.00 0.00 40 1011.3
20260906205939 37 65 11.3 25.7 0.00 0.00 0.00 39 1011.5
20260906205427 37 104 17.7 25.7 0.00 0.00 0.00 39 1011.5
20260906204935 37 118 9.7 24.1 0.00 0.00 0.00 39 1011.7
20260906204439 37 73 12.9 24.1 0.00 0.00 0.00 39 1011.6
20260906203944 37 49 9.7 22.5 0.00 0.00 0.00 40 1011.7
20260906203431 37 115 12.9 22.5 0.00 0.00 0.00 40 1011.7
20260906202935 37 53 11.3 25.7 0.00 0.00 0.00 41 1011.7
20260906202458 36 66 16.1 25.7 0.00 0.00 0.00 41 1011.7
20260906201942 37 62 12.9 24.1 0.00 0.00 0.00 40 1011.8
20260906201429 37 76 6.4 22.5 0.00 0.00 0.00 39 1011.8
20260906200938 37 97 14.5 22.5 0.00 0.00 0.00 39 1011.9
20260906200426 36 119 6.4 24.1 0.00 0.00 0.00 40 1012.1
20260906195933 36 106 12.9 25.7 0.00 0.00 0.00 40 1012.0
20260906195437 36 110 12.9 25.7 0.00 0.00 0.00 40 1012.0
20260906194939 36 89 6.4 24.1 0.00 0.00 0.00 41 1012.0
20260906194441 36 102 6.4 17.7 0.00 0.00 0.00 41 1012.1
20260906193930 37 126 9.7 19.3 0.00 0.00 0.00 41 1012.1
20260906193435 36 118 8.0 22.5 0.00 0.00 0.00 41 1012.3
20260906192944 36 101 16.1 22.5 0.00 0.00 0.00 41 1012.3
20260906192430 36 120 9.7 24.1 0.00 0.00 0.00 41 1012.3
20260906191935 37 107 9.7 24.1 0.00 0.00 0.00 42 1012.5
20260906191438 36 97 12.9 22.5 0.00 0.00 0.00 42 1012.6
20260906190944 36 104 3.2 24.1 0.00 0.00 0.00 43 1012.5
20260906190433 36 89 11.3 25.7 0.00 0.00 0.00 42 1012.6
20260906185941 36 85 14.5 25.7 0.00 0.00 0.00 41 1012.6
20260906185426 36 135 6.4 24.1 0.00 0.00 0.00 42 1012.6
20260906184958 36 185 11.3 24.1 0.00 0.00 0.00 42 1012.6
20260906184446 36 131 16.1 24.1 0.00 0.00 0.00 42 1012.7
20260906183928 36 108 9.7 16.1 0.00 0.00 0.00 42 1012.7
20260906183428 36 115 8.0 19.3 0.00 0.00 0.00 43 1012.8
20260906183006 36 112 11.3 19.3 0.00 0.00 0.00 42 1012.8
20260906182430 36 104 11.3 19.3 0.00 0.00 0.00 42 1012.9
20260906181934 36 124 11.3 17.7 0.00 0.00 0.00 44 1013.0
20260906181459 36 106 11.3 17.7 0.00 0.00 0.00 45 1013.1
20260906180940 35 101 8.0 19.3 0.00 0.00 0.00 46 1013.2
20260906180444 35 99 11.3 19.3 0.00 0.00 0.00 46 1013.3
20260906175930 35 110 3.2 19.3 0.00 0.00 0.00 46 1013.3
20260906175502 35 86 12.9 19.3 0.00 0.00 0.00 46 1013.3
20260906174948 35 148 6.4 20.9 0.00 0.00 0.00 46 1013.4
20260906174432 35 108 11.3 20.9 0.00 0.00 0.00 45 1013.6
20260906173941 35 188 8.0 19.3 0.00 0.00 0.00 46 1013.6
20260906173427 35 98 8.0 17.7 0.00 0.00 0.00 47 1013.8
20260906172938 35 114 8.0 20.9 0.00 0.00 0.00 46 1013.9
20260906172440 35 101 11.3 20.9 0.00 0.00 0.00 48 1013.9
20260906171945 35 110 14.5 20.9 0.00 0.00 0.00 47 1013.9
20260906171430 35 120 4.8 20.9 0.00 0.00 0.00 49 1013.9
20260906170940 35 110 8.0 20.9 0.00 0.00 0.00 50 1013.9
20260906170504 34 73 12.9 20.9 0.00 0.00 0.00 50 1014.0
20260906165947 34 100 9.7 19.3 0.00 0.00 0.00 50 1014.1
20260906165437 34 77 9.7 19.3 0.00 0.00 0.00 51 1014.2
20260906164925 34 112 6.4 17.7 0.00 0.00 0.00 50 1014.2
20260906164432 34 109 4.8 17.7 0.00 0.00 0.00 51 1014.3
20260906163956 34 124 8.0 22.5 0.00 0.00 0.00 52 1014.4
20260906163441 34 108 11.3 22.5 0.00 0.00 0.00 51 1014.4
20260906162940 33 164 4.8 17.7 0.00 0.00 0.00 52 1014.4
20260906162426 33 63 11.3 17.7 0.00 0.00 0.00 52 1014.3
20260906161933 33 112 3.2 16.1 0.00 0.00 0.00 53 1014.3
20260906161438 33 113 9.7 19.3 0.00 0.00 0.00 53 1014.4
20260906160945 33 85 11.3 19.3 0.00 0.00 0.00 53 1014.3
20260906160428 33 96 9.7 16.1 0.00 0.00 0.00 52 1014.3
20260906155938 33 79 6.4 14.5 0.00 0.00 0.00 53 1014.3
20260906155440 33 77 6.4 12.9 0.00 0.00 0.00 54 1014.3
20260906154943 33 101 8.0 16.1 0.00 0.00 0.00 54 1014.3
20260906154449 32 106 4.8 16.1 0.00 0.00 0.00 57 1014.3
20260906153955 32 109 3.2 11.3 0.00 0.00 0.00 58 1014.3
20260906153438 32 108 6.4 11.3 0.00 0.00 0.00 59 1014.3
20260906152943 32 118 6.4 9.7 0.00 0.00 0.00 59 1014.2
20260906152429 32 108 8.0 11.3 0.00 0.00 0.00 59 1014.1
20260906151933 32 117 6.4 11.3 0.00 0.00 0.00 59 1014.1
20260906151443 32 74 4.8 11.3 0.00 0.00 0.00 60 1013.9
20260906150928 31 102 4.8 9.7 0.00 0.00 0.00 60 1013.9
20260906150502 31 111 6.4 9.7 0.00 0.00 0.00 63 1013.8
20260906145949 31 104 4.8 9.7 0.00 0.00 0.00 63 1013.8
20260906145428 30 109 6.4 11.3 0.00 0.00 0.00 64 1013.8
20260906144928 30 106 6.4 11.3 0.00 0.00 0.00 65 1013.7
20260906144435 30 121 4.8 8.0 0.00 0.00 0.00 65 1013.8
20260906143941 30 112 3.2 6.4 0.00 0.00 0.00 65 1013.8
20260906143428 30 112 3.2 11.3 0.00 0.00 0.00 67 1013.8
20260906142940 29 114 1.6 11.3 0.00 0.00 0.00 67 1013.9
20260906142449 29 110 6.4 9.7 0.00 0.00 0.00 67 1013.8
20260906141936 29 104 4.8 8.0 0.00 0.00 0.00 68 1013.8
20260906141503 29 103 4.8 8.0 0.00 0.00 0.00 68 1013.7
20260906140932 28 112 1.6 8.0 0.00 0.00 0.00 69 1013.7
20260906140440 28 114 4.8 8.0 0.00 0.00 0.00 70 1013.8
20260906135944 28 117 4.8 6.4 0.00 0.00 0.00 71 1013.8
20260906135428 28 117 3.2 6.4 0.00 0.00 0.00 71 1013.9
20260906134932 28 118 3.2 6.4 0.00 0.00 0.00 72 1013.9
20260906134441 28 118 3.2 6.4 0.00 0.00 0.00 72 1014.0
20260906133941 27 119 1.6 6.4 0.00 0.00 0.00 72 1014.0
20260906133427 27 120 4.8 8.0 0.00 0.00 0.00 72 1014.1
20260906132933 27 121 4.8 8.0 0.00 0.00 0.00 73 1014.0
20260906132506 27 123 3.2 8.0 0.00 0.00 0.00 73 1013.9
20260906131931 27 124 3.2 8.0 0.00 0.00 0.00 73 1014.0
20260906131436 27 123 3.2 8.0 0.00 0.00 0.00 74 1013.9
20260906130941 27 125 4.8 8.0 0.00 0.00 0.00 74 1013.9
20260906130445 27 123 4.8 8.0 0.00 0.00 0.00 75 1013.8
20260906125953 27 124 6.4 8.0 0.00 0.00 0.00 75 1013.8
20260906125437 26 127 3.2 6.4 0.00 0.00 0.00 76 1013.8
20260906124926 26 129 3.2 6.4 0.00 0.00 0.00 76 1013.7
20260906124453 26 129 1.6 6.4 0.00 0.00 0.00 77 1013.6
20260906124000 26 129 3.2 4.8 0.00 0.00 0.00 77 1013.6
20260906123430 26 130 3.2 4.8 0.00 0.00 0.00 77 1013.6
20260906122930 26 130 3.2 6.4 0.00 0.00 0.00 78 1013.5
20260906122437 26 130 4.8 6.4 0.00 0.00 0.00 78 1013.5
20260906121943 26 131 4.8 6.4 0.00 0.00 0.00 78 1013.5
20260906121429 26 133 3.2 6.4 0.00 0.00 0.00 78 1013.4
20260906120928 26 133 1.6 4.8 0.00 0.00 0.00 78 1013.3
20260906120458 26 133 3.2 8.0 0.00 0.00 0.00 78 1013.2
20260906115942 26 133 4.8 8.0 0.00 0.00 0.00 78 1013.2
20260906115448 26 136 4.8 8.0 0.00 0.00 0.00 78 1013.2
20260906114937 26 138 4.8 6.4 0.00 0.00 0.00 78 1013.2
20260906114440 26 138 3.2 6.4 0.00 0.00 0.00 77 1013.2
20260906113927 26 139 1.6 4.8 0.00 0.00 0.00 77 1013.0
20260906113454 26 139 3.2 6.4 0.00 0.00 0.00 77 1013.0
20260906112938 26 139 3.2 6.4 0.00 0.00 0.00 77 1013.0
20260906112425 26 139 4.8 6.4 0.00 0.00 0.00 76 1013.0
20260906112000 26 140 4.8 6.4 0.00 0.00 0.00 76 1012.8
20260906111446 26 141 4.8 6.4 0.00 0.00 0.00 76 1012.8
20260906110935 26 148 4.8 8.0 0.00 0.00 0.00 75 1012.9
20260906110440 26 153 4.8 8.0 0.00 0.00 0.00 75 1012.9
20260906105958 26 158 4.8 6.4 0.00 0.00 0.00 75 1012.8
20260906105448 26 162 3.2 6.4 0.00 0.00 0.00 74 1012.8
20260906104939 26 162 3.2 4.8 0.00 0.00 0.00 74 1012.7
20260906104446 26 163 1.6 3.2 0.00 0.00 0.00 75 1012.7
20260906103959 27 164 1.6 1.6 0.00 0.00 0.00 74 1012.6
20260906103443 27 164 0.0 3.2 0.00 0.00 0.00 74 1012.6
20260906102934 27 164 0.0 4.8 0.00 0.00 0.00 73 1012.5
20260906102434 27 164 3.2 4.8 0.00 0.00 0.00 73 1012.5
20260906101942 27 164 3.2 4.8 0.00 0.00 0.00 72 1012.6
20260906101447 27 164 3.2 4.8 0.00 0.00 0.00 72 1012.6
20260906100931 27 164 0.0 4.8 0.00 0.00 0.00 71 1012.5
20260906100505 27 164 0.0 6.4 0.00 0.00 0.00 71 1012.5
20260906095928 27 164 1.6 6.4 0.00 0.00 0.00 71 1012.5
20260906095457 27 164 3.2 4.8 0.00 0.00 0.00 70 1012.3
20260906094924 27 162 3.2 4.8 0.00 0.00 0.00 70 1012.3
20260906094437 27 158 3.2 4.8 0.00 0.00 0.00 70 1012.3
20260906093944 27 158 3.2 4.8 0.00 0.00 0.00 70 1012.3
20260906093449 27 158 1.6 3.2 0.00 0.00 0.00 70 1012.2
20260906092952 27 158 1.6 3.2 0.00 0.00 0.00 70 1012.1
20260906092444 28 158 0.0 6.4 0.00 0.00 0.00 70 1012.2
20260906091950 28 158 3.2 9.7 0.00 0.00 0.00 69 1012.2
20260906091456 28 158 3.2 9.7 0.00 0.00 0.00 69 1012.0
20260906090944 28 153 3.2 6.4 0.00 0.00 0.00 69 1012.0
20260906090433 28 148 1.6 9.7 0.00 0.00 0.00 69 1012.0
20260906085940 28 148 4.8 9.7 0.00 0.00 0.00 69 1011.9
20260906085427 28 185 3.2 8.0 0.00 0.00 0.00 69 1011.9
20260906084940 28 184 3.2 8.0 0.00 0.00 0.00 69 1012.0
20260906084430 28 193 3.2 11.3 0.00 0.00 0.00 69 1012.0
20260906084003 28 153 6.4 11.3 0.00 0.00 0.00 69 1011.9
20260906083428 28 164 6.4 14.5 0.00 0.00 0.00 69 1012.0
20260906082943 28 193 6.4 14.5 0.00 0.00 0.00 69 1011.9
20260906082453 28 202 6.4 9.7 0.00 0.00 0.00 69 1011.9
20260906081940 28 208 6.4 9.7 0.00 0.00 0.00 69 1011.9
20260906081430 28 210 4.8 11.3 0.00 0.00 0.00 69 1011.8
20260906080934 28 210 3.2 8.0 0.00 0.00 0.00 69 1011.7
20260906080437 28 209 4.8 8.0 0.00 0.00 0.00 68 1011.8
20260906075946 28 210 3.2 11.3 0.00 0.00 0.00 68 1011.8
20260906075435 28 207 6.4 11.3 0.00 0.00 0.00 68 1012.0
20260906074937 28 201 4.8 12.9 0.00 0.00 0.00 67 1012.0
20260906074443 28 198 8.0 12.9 0.00 0.00 0.00 67 1012.1
20260906073946 28 189 4.8 14.5 0.00 0.00 0.00 67 1012.2
20260906073429 28 197 8.0 14.5 0.00 0.00 0.00 67 1012.3
20260906072932 29 187 6.4 14.5 0.00 0.00 0.00 67 1012.2
20260906072438 29 181 8.0 14.5 0.00 0.00 0.00 67 1012.2
20260906071950 29 125 4.8 8.0 0.00 0.00 0.00 67 1012.3
20260906071431 29 193 3.2 11.3 0.00 0.00 0.00 67 1012.2
20260906070944 29 189 4.8 11.3 0.00 0.00 0.00 67 1012.2
20260906070428 29 204 6.4 11.3 0.00 0.00 0.00 67 1012.1
20260906065955 29 181 6.4 12.9 0.00 0.00 0.00 67 1012.2
20260906065435 29 187 8.0 12.9 0.00 0.00 0.00 67 1012.3
20260906064941 29 206 4.8 8.0 0.00 0.00 0.00 67 1012.2
20260906064449 29 208 4.8 8.0 0.00 0.00 0.00 67 1012.3
20260906063936 29 207 4.8 8.0 0.00 0.00 0.00 67 1012.4
20260906063428 29 207 3.2 9.7 0.00 0.00 0.00 67 1012.4
20260906062957 29 203 6.4 9.7 0.00 0.00 0.00 67 1012.4
20260906062505 29 206 6.4 9.7 0.00 0.00 0.00 66 1012.3
20260906061932 29 212 3.2 9.7 0.00 0.00 0.00 66 1012.3
20260906061445 29 211 4.8 9.7 0.00 0.00 0.00 66 1012.3
20260906060927 29 220 3.2 6.4 0.00 0.00 0.00 66 1012.3
20260906060434 29 220 3.2 6.4 0.00 0.00 0.00 66 1012.4
20260906055943 29 220 3.2 6.4 0.00 0.00 0.00 65 1012.5
20260906055435 29 221 1.6 4.8 0.00 0.00 0.00 65 1012.5
20260906054941 29 221 1.6 6.4 0.00 0.00 0.00 65 1012.4
20260906054444 30 220 4.8 6.4 0.00 0.00 0.00 64 1012.5
20260906053928 30 220 4.8 8.0 0.00 0.00 0.00 64 1012.4
20260906053452 30 220 4.8 9.7 0.00 0.00 0.00 64 1012.4
20260906052936 30 178 4.8 11.3 0.00 0.00 0.00 64 1012.4
20260906052504 30 158 4.8 11.3 0.00 0.00 0.00 63 1012.4
20260906051953 30 185 3.2 9.7 0.00 0.00 0.00 63 1012.5
20260906051445 30 185 3.2 11.3 0.00 0.00 0.00 63 1012.5
20260906050951 30 199 4.8 17.7 0.00 0.00 0.00 62 1012.4
20260906050438 30 153 8.0 17.7 0.00 0.00 0.00 62 1012.4
20260906045956 30 153 9.7 16.1 0.00 0.00 0.00 61 1012.4
20260906045438 30 158 8.0 16.1 0.00 0.00 0.00 61 1012.5
20260906044929 30 148 8.0 11.3 0.00 0.00 0.00 61 1012.4
20260906044435 30 148 6.4 8.0 0.00 0.00 0.00 61 1012.3
20260906043942 30 148 3.2 8.0 0.00 0.00 0.00 61 1012.4
20260906043430 31 148 4.8 9.7 0.00 0.00 0.00 60 1012.3
20260906042945 31 148 4.8 9.7 0.00 0.00 0.00 60 1012.3
20260906042450 31 140 4.8 11.3 0.00 0.00 0.00 60 1012.2
20260906041934 31 148 6.4 16.1 0.00 0.00 0.00 59 1012.2
20260906041442 31 153 8.0 16.1 0.00 0.00 0.00 59 1012.1
20260906040929 31 174 8.0 16.1 0.00 0.00 0.00 59 1012.2
20260906040438 31 143 8.0 16.1 0.00 0.00 0.00 59 1012.1
20260906035943 31 164 8.0 16.1 0.00 0.00 0.00 59 1012.1
20260906035432 31 136 4.8 16.1 0.00 0.00 0.00 58 1012.2
20260906034943 31 148 8.0 16.1 0.00 0.00 0.00 58 1012.3
20260906034443 31 167 6.4 17.7 0.00 0.00 0.00 58 1012.3
20260906033931 31 158 11.3 17.7 0.00 0.00 0.00 57 1012.3
20260906033434 31 174 8.0 17.7 0.00 0.00 0.00 57 1012.3
20260906032943 31 162 8.0 17.7 0.00 0.00 0.00 57 1012.3
20260906032431 31 127 6.4 17.7 0.00 0.00 0.00 57 1012.3
20260906031940 31 129 11.3 19.3 0.00 0.00 0.00 56 1012.3
20260906031446 31 158 8.0 19.3 0.00 0.00 0.00 56 1012.2
20260906030949 31 130 8.0 16.1 0.00 0.00 0.00 55 1012.2
20260906030435 31 133 11.3 20.9 0.00 0.00 0.00 55 1012.2
20260906025941 32 117 9.7 20.9 0.00 0.00 0.00 54 1012.4
20260906025428 32 114 16.1 20.9 0.00 0.00 0.00 54 1012.3
20260906024935 32 114 8.0 17.7 0.00 0.00 0.00 54 1012.2
20260906024442 32 142 9.7 20.9 0.00 0.00 0.00 54 1012.0
20260906023931 32 119 9.7 20.9 0.00 0.00 0.00 54 1012.0
20260906023440 32 122 6.4 17.7 0.00 0.00 0.00 54 1011.9
20260906022928 32 118 8.0 16.1 0.00 0.00 0.00 54 1011.7
20260906022433 32 148 9.7 16.1 0.00 0.00 0.00 53 1011.7
20260906021942 32 116 9.7 17.7 0.00 0.00 0.00 53 1011.6
20260906021428 32 116 11.3 17.7 0.00 0.00 0.00 52 1011.7
20260906020941 32 110 6.4 24.1 0.00 0.00 0.00 52 1011.5
20260906020430 33 130 16.1 24.1 0.00 0.00 0.00 51 1011.5
20260906015935 33 124 11.3 19.3 0.00 0.00 0.00 50 1011.4
20260906015453 33 131 11.3 22.5 0.00 0.00 0.00 50 1011.3
20260906014937 33 136 14.5 22.5 0.00 0.00 0.00 49 1011.3
20260906014442 33 105 12.9 25.7 0.00 0.00 0.00 48 1011.1
20260906013945 33 129 11.3 25.7 0.00 0.00 0.00 46 1011.1
20260906013430 33 99 16.1 24.1 0.00 0.00 0.00 44 1011.0
20260906012935 34 106 4.8 8.0 0.00 0.00 0.00 43 1010.8
20260906012438 34 107 4.8 6.4 0.00 0.00 0.00 43 1010.7
20260906012009 34 106 4.8 6.4 0.00 0.00 0.00 42 1010.6
20260906011432 34 106 4.8 8.0 0.00 0.00 0.00 42 1010.5
20260906010944 35 106 6.4 11.3 0.00 0.00 0.00 41 1010.5
20260906010424 35 103 3.2 11.3 0.00 0.00 0.00 41 1010.5
20260906005935 35 104 4.8 11.3 0.00 0.00 0.00 41 1010.4
20260906005510 35 102 6.4 11.3 0.00 0.00 0.00 40 1010.4
20260906005000 35 93 8.0 11.3 0.00 0.00 0.00 40 1010.4
20260906004444 35 114 8.0 16.1 0.00 0.00 0.00 39 1010.4
20260906003929 35 108 4.8 16.1 0.00 0.00 0.00 39 1010.4
20260906003437 35 90 9.7 16.1 0.00 0.00 0.00 39 1010.4
20260906002944 35 100 6.4 12.9 0.00 0.00 0.00 39 1010.4
20260906002429 36 102 6.4 14.5 0.00 0.00 0.00 38 1010.4
20260906001955 36 62 9.7 16.1 0.00 0.00 0.00 38 1010.4
20260906001426 36 93 4.8 16.1 0.00 0.00 0.00 38 1010.4
20260906000930 36 102 8.0 14.5 0.00 0.00 0.00 38 1010.3
20260906000440 36 93 6.4 17.7 0.00 0.00 0.00 37 1010.2
20260905235929 36 55 11.3 17.7 0.00 0.00 0.00 37 1010.2
20260905235439 36 117 3.2 16.1 0.00 0.00 0.00 38 1010.2
20260905234931 36 109 8.0 16.1 0.00 0.00 0.00 38 1010.1
20260905234439 36 91 4.8 12.9 0.00 0.00 0.00 37 1010.1
20260905233946 36 115 6.4 11.3 0.00 0.00 0.00 37 1010.2
20260905233435 36 93 6.4 16.1 0.00 0.00 0.00 37 1010.2
20260905232938 36 101 6.4 16.1 0.00 0.00 0.00 38 1010.2
20260905232445 36 112 4.8 16.1 0.00 0.00 0.00 38 1010.2
20260905231957 36 69 3.2 16.1 0.00 0.00 0.00 38 1010.1
20260905231442 37 113 9.7 19.3 0.00 0.00 0.00 37 1010.2
20260905230944 36 110 12.9 20.9 0.00 0.00 0.00 38 1010.1
20260905230428 36 91 14.5 20.9 0.00 0.00 0.00 38 1010.1